Regional Weather Roundup
Issued by NWS

Home | Current Version | Previous Version | Text Only | Print | Product List | Glossary Off
Versions: 1 2 3 4 5 6 7 8 9 10 11 12 13 14 15 16 17 18 19 20 21 22 23 24 25 26 27 28 29 30 31 32 33 34 35 36 37 38 39 40 41 42 43 44 45 46 47 48 49 50

000
ASUS43 KMKX 070400
RWRWI

WISCONSIN REGIONAL WEATHER ROUNDUP
NATIONAL WEATHER SERVICE MILWAUKEE/SULLIVAN WI
1000 PM CST SAT FEB 06 2016

NOTE: "FAIR" INDICATES FEW OR NO CLOUDS BELOW 12,000 FEET WITH NO
SIGNIFICANT WEATHER AND/OR OBSTRUCTIONS TO VISIBILITY.

WIZ001-002-006>008-014>016-023>028-070500-
NORTHWEST WISCONSIN

CITY           SKY/WX    TMP DP  RH WIND       PRES   REMARKS
SUPERIOR ARPT  CLOUDY    34  28  79 SW14      29.70F WCI  25
ASHLAND        LGT SNOW  34  25  69 S16       29.73F WCI  24
HAYWARD        LGT SNOW  30  26  85 S14       29.75F FOG     WCI  19
SIREN          FLURRIES  33  28  83 SW10G17   29.76S WCI  25
CUMBERLAND     LGT SNOW  30  27  86 S14       29.78F WCI  20
RICE LAKE      LGT SNOW  31  26  80 S9        29.82F WCI  23
CHETEK         CLOUDY    31  26  81 S13       29.82F WCI  21
LADYSMITH      CLOUDY    31  25  77 S10G18    29.84F WCI  22
EAU CLAIRE     NOT AVBL
MENOMONIE      CLOUDY    32  26  78 S14       29.85F WCI  22
NEW RICHMOND   MIX PCPN  32  28  83 S14       29.79F WCI  22
OSCEOLA        MIX PCPN  33  29  86 S10       29.82F WCI  25
$$

WIZ003>005-009-010-017-018-070500-
NORTH CENTRAL WISCONSIN

CITY           SKY/WX    TMP DP  RH WIND       PRES   REMARKS
MANITOWISH WTR CLOUDY    30  23  75 S9        29.76F WCI  21
ARBOR VITAE    CLOUDY    32  25  74 S12       29.78F WCI  23
WOODRUFF       CLOUDY    32  25  74 S12       29.78F WCI  23
RHINELANDER    LGT SNOW  28  24  85 S15G21    29.82F FOG     WCI  16
EAGLE RIVER    FLURRIES  30  22  71 S7        29.81F WCI  23
LAND O LAKES   CLOUDY    31  23  73 S8        29.80F WCI  23
PHILLIPS       CLOUDY    30  23  74 S12G18    29.79F WCI  21
TOMAHAWK       LGT SNOW  28  25  87 S6        29.84F WCI  22
MEDFORD        CLOUDY    28  24  83 S12       29.84F WCI  18
MERRILL        FLURRIES  30  23  75 SW8       29.89F WCI  23
$$

WIZ029-030-035-036-043>047-070500-
CENTRAL WISCONSIN

CITY           SKY/WX    TMP DP  RH WIND       PRES   REMARKS
WAUSAU         CLOUDY    31  24  75 S13       29.87F WCI  21
MOSINEE        MOCLDY    28  27  93 S10       29.90F WCI  19
MARSHFIELD     CLOUDY    30  22  72 S13       29.86F WCI  20
STEVENS POINT  CLOUDY    28  24  85 S12       29.92F WCI  18
WAUPACA        CLOUDY    32  26  77 S9        29.96F WCI  24
WAUTOMA        NOT AVBL
WISC RAPIDS    CLOUDY    30  23  75 SW10      29.93F WCI  21
CAMP DOUGLAS   NOT AVBL
$$

WIZ011>013-019>022-031-037>040-048>050-070500-
NORTHEAST WISCONSIN

CITY           SKY/WX    TMP DP  RH WIND       PRES   REMARKS
ANTIGO         CLOUDY    28  23  82 S12       29.88F WCI  18
SHAWANO        CLOUDY    32  26  77 SW6       29.95S WCI  26
OCONTO         CLOUDY    30  26  85 S7        29.96S WCI  23
STURGEON BAY   CLOUDY    28  21  74 S15       29.98S WCI  17
GREEN BAY      CLOUDY    29  25  85 S12       29.97F WCI  19
MANITOWOC      NOT AVBL
APPLETON       CLOUDY    28  23  80 S14       29.96F WCI  17
CLINTONVILLE   CLOUDY    32  25  74 S8        29.95S WCI  25
OSHKOSH        CLOUDY    28  24  85 SW13      29.98F WCI  17
$$

WIZ032>034-041-042-053>061-070500-
SOUTHWEST WISCONSIN

CITY           SKY/WX    TMP DP  RH WIND       PRES   REMARKS
LA CROSSE      CLOUDY    31  25  78 S10       29.92F WCI  22
SPARTA         CLOUDY    31  26  83 S7        29.95F WCI  24
VIROQUA        CLOUDY    29  27  92 S9        29.93F WCI  20
BOSCOBEL       CLOUDY    33  30  88 SW5       29.99F WCI  29
PRAIRIE DU CHI MOCLDY    32  27  82 S7        29.99F WCI  26
PLATTEVILLE    PTCLDY    29  28  95 S9        30.01S WCI  21
$$

WIZ056-057-062-063-064-067-068-070500-
SOUTH CENTRAL WISCONSIN

CITY           SKY/WX    TMP DP  RH WIND       PRES   REMARKS
REEDSBURG      CLOUDY    29  27  90 S8        29.97F WCI  22
BARABOO/DELLS  CLOUDY    30  26  86 SW10      29.97F WCI  21
LONE ROCK      NOT AVBL
MINERAL POINT  CLOUDY    30  30 100 S10       29.99F FOG     WCI  21
MADISON        CLOUDY    30  25  81 S7        30.00F WCI  23
MIDDLETON      CLOUDY    32  28  84 S6        30.00F WCI  26
WATERTOWN      CLOUDY    29  29 100 S7        30.01F WCI  22
MONROE         CLOUDY    30  28  93 S10       30.00F WCI  21
JANESVILLE     PTCLDY    32  30  93 CALM      30.03F
$$

WIZ051-052-058>065-066-070>072-070500-
SOUTHEAST WISCONSIN

CITY           SKY/WX    TMP DP  RH WIND       PRES   REMARKS
MILWAUKEE      CLOUDY    32  27  81 SW10      30.03F WCI  24
WAUKESHA       PTCLDY    28  27  93 SW8       30.03F WCI  20
MILWAUKEE/TIMM PTCLDY    30  27  86 S5        30.04F WCI  25
RACINE         CLEAR     32  26  78 SW7       30.06F WCI  26
BURLINGTON     PTCLDY    29  26  88 S3        30.04F
KENOSHA        CLEAR     31  26  82 SW6       30.05F WCI  25
FOND DU LAC    CLOUDY    29  25  85 SW12      29.99F WCI  19
SHEBOYGAN      PTCLDY    30  25  81 S7        29.99F WCI  23
WEST BEND      PTCLDY    30  27  86 SW7       30.00F WCI  23
JUNEAU         CLOUDY    28  26  91 S9        30.02F WCI  19
$$

LSZ147-162-070500-
LAKE SUPERIOR

STATION/POSITION TIME  TEMP    WIND        PRES    WAVE
                       AIR SEA DIR/SP/G            HT/PER
                 (UTC) (F)     (DEG/KT/KT) (MB)    (FT/S)
DEVILS ISLAND    0300   33     190/  9/ 12 1007.9F
SAXON HARBOR     0300   35                 1007.1F
$$

LMZ867-665-643>646-070500-
LAKE MICHIGAN

STATION/POSITION TIME  TEMP    WIND        PRES    WAVE
                       AIR SEA DIR/SP/G            HT/PER
                 (UTC) (F)     (DEG/KT/KT) (MB)    (FT/S)
CHAMBERS ISLAND  0300   29     170/ 10/ 14 1014.6F
ALGOMA LAKESHORE 0241          230/ 16/ 18   N/A
KEWAUNEE LAKESHO 0300   30     200/ 12/ 14 1015.0F
SHEBOYGAN LAKESH 0300   31     200/ 11/ 12 1017.7F
PORT WASHINGTON  0300   31     210/  4/  8 1017.9
MILWAUKEE LAKESH 0310   33     220/  6/  6   N/A
KENOSHA   LAKESH 0300   34     210/  6/  7 1018.3F
$$

TC  - TEMPERATURE IN CELSIUS
VSB - VISIBILITY IN STATUTE MILES
WCI - WIND CHILL INDEX
HX  - HEAT INDEX




USA.gov is the U.S. government's official web portal to all federal, state and local government web resources and services.